User: anonymous   Login
Location: Unspecified
(0.0000°N, 0.0000°E)
Time: 23:09:32
(UTC+00:00)
Language:

GOES 5 - Orbit

View from above orbital plane
View from above orbital plane
View from above satellite
View from above satellite

Ground track
Ground track

The orbit data is extracted from the following two-line orbital elements,

1 12472U 81049A   18261.51378146  .00000080  00000-0  00000+0 0  9998
2 12472  13.9368 340.1794 0004657 276.1260 144.6264  1.00259571 94596
Epoch (UTC): 18 September 2018 12:19:50
Eccentricity: 0.0004657
inclination: 13.9368°
perigee height: 35770 km
apogee height: 35809 km
right ascension of ascending node: 340.1794°
argument of perigee: 276.1260°
revolutions per day: 1.00259571
mean anomaly at epoch: 144.6264°
orbit number at epoch: 9459

The dashed part of the orbit path shows where the satellite is in the earth's shadow,  

DLR